Showing default

COSMOS 2251, 22675

Orbit data source: Space-Track

COSMOS 2251, 22675 is a payload satellite owned by VKS (CIS) in LEO that was launched on Wed, 16 Jun 1993 UTC via a KOSMOS 11K65M launch vehicle from the Plesetsk Missile And Space Complex (PKMTR). Payloads include a variety of satellites, spacecraft, and rockets equipped with specific instruments for various scientific and technological missions. These include communications satellites like Starlink; space stations such as the ISS; scientific satellites like the Hubble; Earth observation satellites from companies like Planet Labs, Umbra, and HawkEye 360; GPS; miniature CubeSats for education and research; and military/defense satellites.

Loading next visibility...
COSMOS 2251 details
Identifier
22675, 1993-036A
Orbit
LEO
Last TLE update7 hours ago
Origin
Flag of CISVKS (CIS)
ManufacturerNPO PM
MissionDefense Communications
Bus & MotorSTRELA-2M, Unknown motor
Mass800 kg wet, 800 kg dry
Launch date (UTC)
1993-06-16 (32 years ago)
Launch vehicle
KOSMOS 11K65M
Launch site
Plesetsk Missile And Space Complex (PKMTR)
Object type
Payload
Rocket body
Debris
Shape & HBRCyl, 3 m
Radar Cross Section6.283 m², Large (>1 m²)

Expand to show TLE details & history

TLE from 7 hours ago
0 COSMOS 2251
1 22675U 93036A   24361.13754113  .00000272  00000-0  10844-3 0  9995
2 22675  74.0383 238.2292 0023940  46.7287 313.5856 14.33053794647691
Epoch: 2024-12-26T03:18Z
Definitive object data (Epoch: 2024-12-26T03:18:03.553Z)
Latitude-0.00005°
Longitude93.59313°
Altitude772.352 km
Speed7.474 km/s
True Right ascension15h 52m 55s
True Declination0° 00' 00"
Sunlit
Object was in daylight at TLE epoch
Visualization TLE readout
Latitude52.95724°
Longitude-109.1059°
Altitude786.197 km
Speed7.468 km/s
Apparent Right ascension23h 59m 36s
Apparent Declination11° 53' 17"
Sunlit
Object is in full shadow
Visualization observer readout
Local Sidereal Time09:55:49
Azimuth324.156° NNW
Elevation-30.766°
Doppler factor1
Orbital elements
Apogee altitude796.303 km
Perigee altitude762.034 km
Semi-major axis7,157.305 km
Eccentricity0.002394
Inclination74.0383°
RAAN238.2292°
Arg. of periapsis46.7287°
True anomaly313.38648°
Mean anomaly313.5856°
Eccentric anomaly313.48608°
Mean motion3.58442 °/min
BSTAR0.00010844
Orbital period100.43 mins
Loading maneuver chart data...

COSMOS 2251 Visibility forecast

Observer location: undefined°, undefined

Span
Click to sort rows by Start time (UTC) header in descending order
Start Az.
Max El. time (UTC)
Max El. Az.
Max El.
End time (UTC)
End Az.
9 mins2024-12-26 16:48:37.374Z176.628° S2024-12-26 16:53:37.374Z96.913° ESE36.933°2024-12-26 16:57:37.374Z33.018° NE
6 mins2024-12-26 18:33:37.374Z266.509° W2024-12-26 18:35:37.374Z294.033° NW19.035°2024-12-26 18:39:37.374Z346.644° N
9 mins2024-12-27 03:19:37.374Z342.559° N2024-12-27 03:23:37.374Z22.318° NNE44.817°2024-12-27 03:28:37.374Z160.708° S
|